DW5684 Weather Reports


Display with metric or nautical units.
time (UTC)temp
F
wind
direction
speed
MPH
gust
MPH
rain 1hr
in
rain 24hr
in
rain mn
in
humidity
%
barometer
mb
20260509061329 56 237 0.0 0.0 0.00 0.00 0.00 96 1010.7
20260509060824 56 237 0.0 0.0 0.00 0.00 0.00 96 1010.6
20260509060321 56 237 0.0 1.0 0.00 0.00 0.00 97 1010.6
20260509055820 56 217 0.0 1.0 0.00 0.00 0.00 97 1010.6
20260509055314 56 219 0.0 1.0 0.00 0.00 0.00 97 1010.7
20260509054848 56 210 0.0 1.0 0.00 0.00 0.00 97 1010.7
20260509054321 55 223 0.0 0.0 0.00 0.00 0.00 97 1010.8
20260509053816 55 223 0.0 0.0 0.00 0.00 0.00 97 1010.8
20260509053331 54 206 0.0 0.0 0.00 0.00 0.00 96 1010.8
20260509052825 54 206 0.0 0.0 0.00 0.00 0.00 95 1010.8
20260509052319 55 206 0.0 0.0 0.00 0.00 0.00 95 1010.8
20260509051818 55 206 0.0 0.0 0.00 0.00 0.00 96 1010.7
20260509051313 55 206 0.0 0.0 0.00 0.00 0.00 95 1010.8
20260509050829 55 206 0.0 0.0 0.00 0.00 0.00 95 1010.8
20260509050323 55 206 0.0 0.0 0.00 0.00 0.00 95 1010.7
20260509045818 56 206 0.0 0.0 0.00 0.00 0.00 95 1010.8
20260509045334 56 206 0.0 0.0 0.00 0.00 0.00 95 1010.8
20260509044828 56 206 0.0 0.0 0.00 0.00 0.00 95 1010.7
20260509044343 56 206 0.0 0.0 0.00 0.00 0.00 95 1010.8
20260509043822 57 206 0.0 0.0 0.00 0.00 0.00 95 1010.8
20260509043315 57 206 0.0 0.0 0.00 0.00 0.00 95 1010.7
20260509042830 57 206 0.0 0.0 0.00 0.00 0.00 95 1010.7
20260509042345 57 198 0.0 0.0 0.00 0.00 0.00 94 1010.7
20260509041819 57 198 0.0 0.0 0.00 0.00 0.00 95 1010.7
20260509041313 57 198 0.0 0.0 0.00 0.00 0.00 95 1010.7
20260509040847 57 198 0.0 0.0 0.00 0.00 0.00 94 1010.6
20260509040321 57 137 0.0 0.0 0.00 0.00 0.00 94 1010.6
20260509035816 57 137 0.0 0.0 0.00 0.00 0.00 94 1010.6
20260509035334 57 137 0.0 0.0 0.00 0.00 0.00 93 1010.5
20260509034848 58 137 0.0 0.0 0.00 0.00 0.00 93 1010.5
20260509034321 58 137 0.0 0.0 0.00 0.00 0.00 92 1010.5
20260509033836 58 137 0.0 0.0 0.00 0.00 0.00 92 1010.5
20260509033330 59 137 0.0 0.0 0.00 0.00 0.00 92 1010.4
20260509032825 59 137 0.0 0.0 0.00 0.00 0.00 92 1010.5
20260509032320 60 136 0.0 0.0 0.00 0.00 0.00 92 1010.4
20260509031854 60 137 0.0 0.0 0.00 0.00 0.00 91 1010.4
20260509031327 60 135 0.0 0.0 0.00 0.00 0.00 91 1010.4
20260509030821 61 135 0.0 0.0 0.00 0.00 0.00 91 1010.3
20260509030338 61 135 0.0 0.0 0.00 0.00 0.00 90 1010.1
20260509025831 61 135 0.0 0.0 0.00 0.00 0.00 90 1010.1
20260509025326 61 214 0.0 0.0 0.00 0.00 0.00 90 1010.1
20260509024820 61 213 0.0 0.0 0.00 0.00 0.00 90 1010.1
20260509024315 61 212 0.0 0.0 0.00 0.00 0.00 90 1009.9
20260509023830 62 311 0.0 0.0 0.00 0.00 0.00 89 1010.0
20260509023325 62 311 0.0 0.0 0.00 0.00 0.00 89 1010.0
20260509022820 62 309 0.0 0.0 0.00 0.00 0.00 89 1010.0
20260509022319 62 58 0.0 1.0 0.00 0.00 0.00 89 1009.9
20260509021814 62 317 0.0 2.0 0.00 0.00 0.00 88 1009.8
20260509021329 62 318 0.0 2.0 0.00 0.00 0.00 87 1009.5
20260509020824 62 317 0.0 2.0 0.00 0.00 0.00 87 1009.4
20260509020318 62 319 0.0 2.0 0.00 0.00 0.00 86 1009.3
20260509015832 63 290 0.0 2.0 0.00 0.00 0.00 86 1009.1
20260509015328 63 320 0.0 1.0 0.00 0.00 0.00 85 1009.0
20260509014822 63 319 0.0 3.0 0.00 0.00 0.00 84 1008.9
20260509014321 63 295 1.0 3.0 0.00 0.00 0.00 84 1008.8
20260509013814 63 277 0.0 6.0 0.00 0.00 0.00 83 1008.7
20260509013349 64 340 2.0 6.0 0.00 0.00 0.00 82 1008.6
20260509012822 64 317 1.0 7.0 0.00 0.00 0.00 80 1008.5
20260509012339 65 273 2.0 7.0 0.00 0.00 0.00 79 1008.3
20260509011813 65 292 1.0 3.0 0.00 0.00 0.00 78 1008.2
20260509011328 65 319 0.0 1.0 0.00 0.00 0.00 77 1007.9
20260509010823 64 285 0.0 2.0 0.00 0.00 0.00 77 1007.7
20260509010323 64 197 0.0 2.0 0.00 0.00 0.00 79 1007.3
20260509005818 64 232 0.0 0.0 0.00 0.00 0.00 80 1007.0
20260509005314 65 165 0.0 0.0 0.00 0.00 0.00 79 1006.7
20260509004829 66 165 0.0 0.0 0.00 0.00 0.00 78 1006.5
20260509004324 67 165 0.0 0.0 0.00 0.00 0.00 75 1006.6
20260509003839 67 163 0.0 1.0 0.00 0.00 0.00 73 1006.5
20260509003333 67 207 0.0 1.0 0.00 0.00 0.00 71 1006.6
20260509002827 68 199 0.0 0.0 0.00 0.00 0.00 70 1006.8
20260509002326 68 210 0.0 0.0 0.00 0.00 0.00 69 1007.0
20260509001822 68 226 0.0 3.0 0.00 0.00 0.00 68 1007.0
20260509001336 68 213 0.0 2.0 0.00 0.00 0.00 68 1007.0
20260509000830 68 168 1.0 2.0 0.00 0.00 0.00 67 1006.9
20260509000326 68 271 0.0 1.0 0.00 0.00 0.00 67 1007.0
20260508235840 68 217 0.0 1.0 0.00 0.00 0.00 67 1006.8
20260508235313 69 191 0.0 0.0 0.00 0.00 0.00 67 1006.4
20260508234828 69 191 0.0 3.0 0.00 0.00 0.00 67 1006.1
20260508234322 69 166 1.0 4.0 0.00 0.00 0.00 65 1006.4
20260508233817 70 141 0.0 5.0 0.00 0.00 0.00 64 1006.6
20260508233316 70 151 2.0 5.0 0.00 0.00 0.00 63 1006.7
20260508232830 70 186 2.0 4.0 0.00 0.00 0.00 62 1006.7
20260508232324 71 195 1.0 6.0 0.00 0.00 0.00 60 1006.9
20260508231817 71 185 2.0 6.0 0.00 0.00 0.00 59 1006.9
20260508231331 71 215 1.0 5.0 0.00 0.00 0.00 58 1007.4
20260508230825 72 209 1.0 4.0 0.00 0.00 0.00 58 1007.6
20260508230319 72 167 1.0 5.0 0.00 0.00 0.00 58 1007.7
20260508225813 72 223 2.0 8.0 0.00 0.00 0.00 55 1008.1
20260508225326 72 215 1.0 8.0 0.00 0.00 0.00 55 1008.2
20260508224820 73 215 2.0 5.0 0.00 0.00 0.00 55 1008.2
20260508224319 73 190 1.0 4.0 0.00 0.00 0.00 59 1008.3
20260508223813 73 220 2.0 4.0 0.00 0.00 0.00 58 1008.4
20260508223327 73 220 0.0 1.0 0.00 0.00 0.00 60 1008.6
20260508222822 73 228 0.0 0.0 0.00 0.00 0.00 59 1008.6
20260508222317 73 210 0.0 0.0 0.00 0.00 0.00 59 1008.5
20260508221852 74 208 0.0 0.0 0.00 0.00 0.00 57 1008.6
20260508221326 74 238 0.0 0.0 0.00 0.00 0.00 58 1008.6
20260508220821 74 219 0.0 0.0 0.00 0.00 0.00 56 1008.7
20260508220319 74 223 0.0 0.0 0.00 0.00 0.00 57 1008.7
20260508215854 74 221 0.0 4.0 0.00 0.00 0.00 56 1008.7
20260508215329 75 228 0.0 4.0 0.00 0.00 0.00 53 1008.6
20260508214823 75 196 0.0 3.0 0.00 0.00 0.00 52 1008.7
20260508185815 78 159 2.0 8.0 0.00 0.00 0.00 55 1010.0
20260508185329 78 207 2.0 8.0 0.00 0.00 0.00 52 1010.1
20260508184824 78 133 3.0 8.0 0.00 0.00 0.00 53 1010.1
20260508184323 77 122 3.0 7.0 0.00 0.00 0.00 47 1010.2
20260508183839 78 161 1.0 6.0 0.00 0.00 0.00 50 1010.1
20260508183331 77 155 2.0 8.0 0.00 0.00 0.00 53 1010.2
20260508182826 76 175 1.0 12.0 0.00 0.00 0.00 56 1010.3
20260508182321 75 200 4.0 12.0 0.00 0.00 0.00 53 1010.3
20260508181816 75 215 5.0 10.0 0.00 0.00 0.00 51 1010.4
20260508181330 76 213 3.0 8.0 0.00 0.00 0.00 51 1010.4
20260508180845 75 198 4.0 10.0 0.00 0.00 0.00 50 1010.5
20260508180323 76 204 5.0 10.0 0.00 0.00 0.00 50 1010.6
20260508175837 75 217 4.0 12.0 0.00 0.00 0.00 51 1010.7
20260508175331 75 228 3.0 12.0 0.00 0.00 0.00 55 1010.7
20260508174826 75 18 5.0 10.0 0.00 0.00 0.00 50 1010.9
20260508174321 75 184 3.0 10.0 0.00 0.00 0.00 52 1010.9
20260508173815 75 243 4.0 10.0 0.00 0.00 0.00 55 1011.0
20260508173331 74 162 4.0 10.0 0.00 0.00 0.00 58 1011.1
20260508172825 73 229 5.0 10.0 0.00 0.00 0.00 54 1011.2
20260508172324 73 212 1.0 11.0 0.00 0.00 0.00 56 1011.3
20260508171819 73 158 5.0 11.0 0.00 0.00 0.00 54 1011.6
20260508171314 73 221 4.0 10.0 0.00 0.00 0.00 60 1011.7
20260508170828 73 213 5.0 8.0 0.00 0.00 0.00 56 1011.7
20260508170323 73 269 5.0 8.0 0.00 0.00 0.00 57 1011.8
20260508165818 73 207 3.0 8.0 0.00 0.00 0.00 58 1011.9
20260508165314 72 127 3.0 12.0 0.00 0.00 0.00 61 1011.9
20260508164829 71 229 6.0 12.0 0.00 0.00 0.00 57 1012.0
20260508164346 71 180 4.0 11.0 0.00 0.00 0.00 58 1012.1
20260508163820 71 255 5.0 12.0 0.00 0.00 0.00 58 1012.2
20260508163314 71 215 4.0 12.0 0.00 0.00 0.00 59 1012.2
20260508162829 71 240 5.0 12.0 0.00 0.00 0.00 59 1012.3
20260508162323 71 219 2.0 10.0 0.00 0.00 0.00 59 1012.3
20260508161818 71 200 5.0 10.0 0.00 0.00 0.00 57 1012.4
20260508161332 71 229 4.0 13.0 0.00 0.00 0.00 58 1012.5
20260508160827 70 201 7.0 13.0 0.00 0.00 0.00 57 1012.6
20260508160346 71 211 4.0 10.0 0.00 0.00 0.00 59 1012.6
20260508155820 70 231 4.0 13.0 0.00 0.00 0.00 60 1012.6
20260508155315 70 218 6.0 13.0 0.00 0.00 0.00 59 1012.6
20260508154829 70 234 3.0 11.0 0.00 0.00 0.00 63 1012.7
20260508154325 69 237 4.0 11.0 0.00 0.00 0.00 61 1012.8
20260508153839 68 226 6.0 13.0 0.00 0.00 0.00 61 1012.8
20260508153354 68 214 6.0 13.0 0.00 0.00 0.00 62 1012.9
20260508152828 68 214 3.0 10.0 0.00 0.00 0.00 65 1012.8
20260508152322 67 215 5.0 10.0 0.00 0.00 0.00 63 1012.9
20260508151842 67 226 6.0 12.0 0.00 0.00 0.00 63 1013.0
20260508151335 67 269 5.0 12.0 0.00 0.00 0.00 64 1013.0
20260508150826 67 210 4.0 10.0 0.00 0.00 0.00 64 1013.0
20260508150320 67 221 4.0 11.0 0.00 0.00 0.00 63 1013.0
20260508145854 67 228 2.0 14.0 0.00 0.00 0.00 67 1013.0
20260508145327 67 354 3.0 14.0 0.00 0.00 0.00 66 1013.1
20260508144822 67 184 5.0 13.0 0.00 0.00 0.00 66 1013.2
20260508144337 66 229 3.0 13.0 0.00 0.00 0.00 66 1013.2
20260508143831 66 224 2.0 11.0 0.00 0.00 0.00 67 1013.3
20260508143326 65 174 5.0 11.0 0.00 0.00 0.00 66 1013.5
20260508142825 65 201 4.0 8.0 0.00 0.00 0.00 68 1013.6
20260508142320 64 165 3.0 9.0 0.00 0.00 0.00 69 1013.5
20260508141815 63 208 3.0 9.0 0.00 0.00 0.00 71 1013.7
20260508141330 63 196 3.0 9.0 0.00 0.00 0.00 70 1013.8
20260508140825 63 225 3.0 10.0 0.00 0.00 0.00 68 1013.7
20260508140339 64 212 5.0 12.0 0.00 0.00 0.00 68 1013.5
20260508135833 63 158 4.0 12.0 0.00 0.00 0.00 70 1013.5
20260508135328 63 197 5.0 9.0 0.00 0.00 0.00 68 1013.7
20260508134827 63 229 5.0 9.0 0.00 0.00 0.00 69 1013.7
20260508134323 63 218 3.0 9.0 0.00 0.00 0.00 69 1013.8
20260508133816 62 257 4.0 9.0 0.00 0.00 0.00 69 1013.9
20260508133330 62 201 3.0 8.0 0.00 0.00 0.00 70 1013.8
20260508132844 62 184 3.0 7.0 0.00 0.00 0.00 70 1013.8
20260508132338 61 224 2.0 10.0 0.00 0.00 0.00 71 1013.8
20260508131831 60 203 3.0 10.0 0.00 0.00 0.00 71 1013.7
20260508131326 60 221 5.0 10.0 0.00 0.00 0.00 70 1013.6
20260508130840 60 210 4.0 10.0 0.00 0.00 0.00 70 1013.5
20260508130317 60 210 3.0 7.0 0.00 0.00 0.00 71 1013.6
20260508125831 60 212 4.0 10.0 0.00 0.00 0.00 69 1013.4
20260508125325 60 215 5.0 12.0 0.00 0.00 0.00 69 1013.4
20260508124820 60 219 4.0 12.0 0.00 0.00 0.00 69 1013.4
20260508124314 60 226 4.0 10.0 0.00 0.00 0.00 69 1013.3
20260508123849 60 203 4.0 10.0 0.00 0.00 0.00 69 1013.3
20260508123323 59 203 6.0 10.0 0.00 0.00 0.00 69 1013.2
20260508122818 59 212 3.0 11.0 0.00 0.00 0.00 70 1013.3
20260508122315 58 212 4.0 11.0 0.00 0.00 0.00 71 1013.2
20260508121829 58 193 4.0 11.0 0.00 0.00 0.00 71 1013.2
20260508121323 57 140 3.0 10.0 0.00 0.00 0.00 71 1013.1
20260508120817 57 214 2.0 8.0 0.00 0.00 0.00 72 1013.1
20260508120331 57 196 3.0 8.0 0.00 0.00 0.00 71 1013.0
20260508115844 57 226 2.0 6.0 0.00 0.00 0.00 72 1012.9
20260508115315 57 219 2.0 9.0 0.00 0.00 0.00 71 1012.8
20260508114829 57 188 2.0 9.0 0.00 0.00 0.00 72 1012.7
20260508114324 57 209 3.0 7.0 0.00 0.00 0.00 71 1012.7
20260508113823 56 198 2.0 5.0 0.00 0.00 0.00 71 1012.6
20260508113338 57 197 1.0 5.0 0.00 0.00 0.00 71 1012.6
20260508112831 56 161 2.0 6.0 0.00 0.00 0.00 72 1012.6
20260508112326 56 214 3.0 6.0 0.00 0.00 0.00 71 1012.5
20260508111821 56 210 2.0 6.0 0.00 0.00 0.00 71 1012.5
20260508111336 56 235 2.0 5.0 0.00 0.00 0.00 72 1012.4
20260508110829 56 161 2.0 5.0 0.00 0.00 0.00 72 1012.4
20260508110324 56 162 2.0 4.0 0.00 0.00 0.00 73 1012.4
20260508105820 55 241 3.0 6.0 0.00 0.00 0.00 73 1012.3
20260508105319 55 180 1.0 6.0 0.00 0.00 0.00 73 1012.3
20260508104834 55 160 1.0 6.0 0.00 0.00 0.00 74 1012.3
20260508104328 54 140 1.0 5.0 0.00 0.00 0.00 75 1012.4
20260508103823 54 188 1.0 5.0 0.00 0.00 0.00 75 1012.3
20260508103318 54 228 0.0 3.0 0.00 0.00 0.00 75 1012.4
20260508102813 54 207 0.0 3.0 0.00 0.00 0.00 75 1012.5
20260508102328 54 195 0.0 3.0 0.00 0.00 0.00 75 1012.5
20260508101823 54 158 0.0 3.0 0.00 0.00 0.00 76 1012.5
20260508101418 53 193 1.0 4.0 0.00 0.00 0.00 76 1012.4
20260508100828 53 170 1.0 4.0 0.00 0.00 0.00 77 1012.5
20260508100326 52 198 0.0 5.0 0.00 0.00 0.00 78 1012.5
20260508095821 52 143 0.0 3.0 0.00 0.00 0.00 79 1012.5
20260508095317 51 195 1.0 3.0 0.00 0.00 0.00 80 1012.6
20260508094830 51 176 0.0 3.0 0.00 0.00 0.00 81 1012.7
20260508094324 51 131 0.0 0.0 0.00 0.00 0.00 81 1012.7
20260508093819 51 141 0.0 0.0 0.00 0.00 0.00 81 1012.7
20260508093314 51 141 0.0 0.0 0.00 0.00 0.00 81 1012.6
20260508092813 50 173 0.0 0.0 0.00 0.00 0.00 82 1012.6
20260508092328 50 165 0.0 0.0 0.00 0.00 0.00 82 1012.6
20260508091823 50 164 0.0 0.0 0.00 0.00 0.00 82 1012.5
20260508091317 50 165 0.0 0.0 0.00 0.00 0.00 82 1012.6
20260508090852 50 176 0.0 0.0 0.00 0.00 0.00 81 1012.6
20260508090326 50 175 0.0 0.0 0.00 0.00 0.00 81 1012.6
20260508085821 50 175 0.0 0.0 0.00 0.00 0.00 81 1012.7
20260508085316 50 176 0.0 0.0 0.00 0.00 0.00 81 1012.8
20260508084814 50 127 0.0 0.0 0.00 0.00 0.00 81 1012.8
20260508084329 51 127 0.0 1.0 0.00 0.00 0.00 80 1012.8
20260508083845 51 186 0.0 1.0 0.00 0.00 0.00 81 1012.8
20260508083318 51 148 0.0 2.0 0.00 0.00 0.00 80 1012.8
20260508082813 51 147 0.0 2.0 0.00 0.00 0.00 80 1012.9
20260508082329 51 166 0.0 0.0 0.00 0.00 0.00 80 1013.0
20260508081824 51 149 0.0 0.0 0.00 0.00 0.00 80 1013.0
20260508081319 51 151 0.0 0.0 0.00 0.00 0.00 79 1013.0
20260508080835 51 167 0.0 2.0 0.00 0.00 0.00 79 1013.0
20260508080313 52 201 0.0 2.0 0.00 0.00 0.00 79 1013.0
20260508075828 52 175 0.0 0.0 0.00 0.00 0.00 78 1013.0
20260508075323 52 161 0.0 3.0 0.00 0.00 0.00 78 1013.1
20260508074818 52 192 0.0 5.0 0.00 0.00 0.00 77 1013.1
20260508074313 52 179 0.0 5.0 0.00 0.00 0.00 77 1013.1
20260508073828 52 188 0.0 5.0 0.00 0.00 0.00 77 1013.2
20260508073322 52 186 1.0 5.0 0.00 0.00 0.00 77 1013.2
20260508072836 52 190 1.0 4.0 0.00 0.00 0.00 78 1013.2
20260508072332 52 217 0.0 5.0 0.00 0.00 0.00 77 1013.3
20260508071827 52 175 2.0 5.0 0.00 0.00 0.00 77 1013.3
20260508071322 52 212 1.0 4.0 0.00 0.00 0.00 77 1013.4
20260508070817 52 191 1.0 3.0 0.00 0.00 0.00 77 1013.5
20260508070352 52 168 1.0 3.0 0.00 0.00 0.00 77 1013.5
20260508065826 53 165 1.0 4.0 0.00 0.00 0.00 77 1013.6
20260508065320 53 161 2.0 4.0 0.00 0.00 0.00 77 1013.6
20260508064835 53 169 0.0 5.0 0.00 0.00 0.00 77 1013.6
20260508064313 53 178 1.0 5.0 0.00 0.00 0.00 77 1013.5
20260508063828 53 161 2.0 4.0 0.00 0.00 0.00 77 1013.6
20260508063323 53 167 1.0 5.0 0.00 0.00 0.00 77 1013.7
20260508062818 53 187 1.0 5.0 0.00 0.00 0.00 77 1013.7
20260508062332 52 225 1.0 3.0 0.00 0.00 0.00 77 1013.8
20260508061826 52 191 0.0 3.0 0.00 0.00 0.00 78 1013.8